Other Public Products
Issued by NWS Charleston, SC

Current Version | Previous Version | Graphics & Text | Print | Product List | Glossary On
Versions: 1 2 3 4 5 6 7 8 9 10 11 12 13 14 15 16 17 18 19 20 21 22 23 24 25 26 27 28 29 30 31 32 33 34 35 36 37 38 39 40 41 42 43 44 45 46 47 48 49 50
468
FPUS82 KCHS 241112
OPUCHS

TEST...KCHS/KSAV Gateway Observations...TEST
National Weather Service Charleston SC
600 AM EST FRI NOV 24 2017

NOTE: "fair" indicates few or no clouds below 12,000 feet with no
significant weather and/or obstructions to visibility.

SCZ050-WAZ558-NCZ071-TXZ119-213-PAZ071-DCZ001-FLZ074-172-MI076-
NYZ176-178-MAZ016-IL014-TNZ027-NJZ106-GAZ044-MD014-241200-

...Gateway Observations for Charleston International...

CITY           SKY/WX    TMP DP  RH WIND       PRES   REMARKS
Chas Airport   CLEAR     43  40  89 N10       29.98S
Seattle        CLOUDY    47  43  86 S10       30.04R
Charlotte      CLEAR     28  28 100 N5        30.05S WCI  23
Dallas DFW     PTCLDY    45  33  63 S6        29.94S
Dallas Love    PTCLDY    45  33  63 CALM      29.96S
Philladelphia  CLEAR     32  27  81 SW5       30.08S WCI  27
Wash National  CLEAR     32  29  88 SW6       30.09S WCI  26
Baltimore      CLEAR     27  24  89 CALM      30.07S
Miami          MOCLDY    71  70  96 S5        29.83S
Detroit        PTCLDY    30  25  81 S6        29.88F WCI  24
Newark         CLEAR     28  21  75 SW7       30.05R WCI  21
Laguardia      CLEAR     38  21  50 W3        30.04R
J F K          CLEAR     34  25  69 SW9       30.06R WCI  27
Boston Logan   PTCLDY    32  23  69 SW10      30.00S WCI  24
Ft. Lauderdale MOCLDY    71  70  96 VRB5      29.82R
Chicago O`Hare PTCLDY    36  27  69 S8        29.80S WCI  30
Chicago Midway PTCLDY    35  28  75 SW7       29.82S WCI  29
Houston Bush   CLEAR     43  41  93 CALM      30.03S
Houston Hobby  PTCLDY    43  41  93 CALM      30.02F
Nashville      CLOUDY    29  25  85 S5        30.01F WCI  24
Atlanta        PTCLDY    43  38  82 NE6       30.03R

$$

GAZ044-118-TXZ119-213-NCZ071-DCZ001-MDZ014-506-PAZ021-071-NJZ106-
NYZ176-178-MAZ106-OHZ011-021-055-MIZ076-KYZ091-ILZ014-INZ047-
MNZ060-ONZ431-241200-

...Gateway Observations for Savannah International...

CITY           SKY/WX    TMP DP  RH WIND       PRES   REMARKS
Savannah Arpt  PTCLDY    43  40  89 N9        29.98R
Atlanta        PTCLDY    43  38  82 NE6       30.03R
Charlotte      CLEAR     28  28 100 N5        30.05S WCI  23
Dallas DFW     PTCLDY    45  33  63 S6        29.94S
Houston Bush   CLEAR     43  41  93 CALM      30.03S
Wash National  CLEAR     32  29  88 SW6       30.09S WCI  26
Wash Dulles    CLOUDY    25  23  92 CALM      30.07F
Baltimore      CLEAR     27  24  89 CALM      30.07S
Philadelphia   CLEAR     32  27  81 SW5       30.08S WCI  27
Newark         CLEAR     28  21  75 SW7       30.05R WCI  21
Laguardia      CLEAR     38  21  50 W3        30.04R
J F K          CLEAR     34  25  69 SW9       30.06R WCI  27
Boston         PTCLDY    32  23  69 SW10      30.00S WCI  24
Pittsburg      CLOUDY    28  22  78 CALM      29.99R
Akron          CLEAR     28  21  75 S6        29.97R WCI  22
Cleveland      CLEAR     34  24  67 S12       29.97F WCI  25
Cincinnati     CLOUDY    32  24  72 S8        29.96F WCI  25
Columbus       CLOUDY    27  23  84 S3        29.98F
Detroit        PTCLDY    30  25  81 S6        29.88F WCI  24
Chicago O`Hare PTCLDY    36  27  69 S8        29.80S WCI  30
Minneapolis    PTCLDY    47  38  71 S8        29.43F
Indianapolis   CLOUDY    31  24  75 S6        29.93S WCI  25
Toronto Canada MOCLDY    36  27  69 S7        29.87F WCI  30

$$




USA.gov is the U.S. government's official web portal to all federal, state and local government web resources and services.